#timestamp,LO_Frequency,Hit,StdDev 
1690981215.3,286047000.7,N
1690981235.2,286046999.4,N
1690981255.9,286046998.7,N
1690981275.7,286046998.4,N
1690981295.6,286046999.5,N
1690981315.4,286046997.0,N
1690981335.2,286046998.9,N
1690981355.1,286046999.1,N
1690981356.0,286046999.1,N
1690981375.8,286046999.2,N
1690981395.7,286046998.7,N
1690981415.5,286047000.8,N
1690981435.3,286047001.2,N
1690981455.2,286046998.4,N
1690981475.0,286046996.5,N
1690981475.9,286046996.5,N
1690981495.7,286046996.6,N
1690981515.6,286046996.9,N
1690981535.4,286046996.6,N
1690981555.3,286046997.1,N
1690981575.1,286046997.5,N
1690981576.0,286046997.5,N
1690981595.8,286046997.1,N
1690981615.7,286046996.5,N
1690981635.5,286046996.6,N
1690981655.3,286046997.1,N
1690981675.2,286046997.0,N
1690981695.0,286046996.6,N
1690981695.9,286046996.6,N
1690981715.8,286046997.0,N
1690981735.6,286046999.2,N
1690981755.4,286046999.0,N
1690981775.3,286046997.4,N
1690981795.1,286046997.1,N
1690981815.8,286046997.4,N
1690981835.7,286046999.6,N
1690981855.5,286046997.4,N
1690981875.4,286046997.0,N
1690981895.2,286046996.8,N
1690981915.0,286046999.2,N
1690981915.9,286046999.2,N
1690981935.8,286046996.5,N
1690981955.6,286046997.2,N
1690981975.4,286046996.9,Y
1690981995.3,286047001.1,P
1690982015.1,286047000.9,N
1690982035.9,286046998.2,N
1690982055.7,286047001.1,N
1690982075.5,286046998.1,N
1690982095.4,286047001.0,N
1690982115.2,286047000.2,N
1690982135.0,286047000.2,N
1690982136.0,286047000.2,N
1690982155.8,286046999.9,N
1690982175.6,286047002.7,N
1690982195.5,286047002.3,N
1690982215.3,286047002.4,N
1690982235.1,286047000.5,N
1690982255.9,286047001.0,N
1690982275.7,286047001.0,N
1690982295.6,286047000.4,N
1690982315.4,286046998.6,N
1690982335.2,286047000.8,N
1690982355.1,286047000.8,N
1690982356.0,286047000.8,N
1690982375.8,286046998.5,N
1690982395.6,286046998.1,N
1690982415.5,286047001.2,N
1690982435.3,286047000.7,N
1690982455.2,286047001.2,N
1690982475.9,286047000.3,N
1690982495.7,286046998.1,N
1690982515.6,286046998.6,N
1690982535.4,286047000.4,N
1690982555.2,286047001.2,N
1690982575.1,286047001.2,N
1690982576.0,286047001.2,N
1690982595.8,286047001.0,N
1690982615.7,286046998.1,N
1690982635.5,286046999.0,N
1690982655.3,286046999.4,N
1690982675.2,286046999.6,N
1690982695.0,286046996.6,N
1690982695.9,286046996.6,N
1690982715.7,286046997.0,N
1690982735.6,286046996.6,N
1690982755.4,286046998.3,N
1690982775.3,286047000.8,N
1690982795.1,286046998.6,N
1690982796.0,286046998.6,N
1690982815.8,286047001.1,N
1690982835.7,286047000.0,N
1690982855.5,286046999.8,N
1690982875.4,286046998.3,N
1690982895.2,286046998.3,N
1690982915.0,286046999.3,N
1690982915.9,286046999.3,N
1690982935.8,286046998.7,N
1690982955.6,286046998.5,N
1690982975.4,286046999.1,N
1690982995.3,286046999.6,N
1690983015.1,286046996.9,N
1690983035.9,286046996.7,N
1690983055.7,286046996.7,N
1690983075.5,286046999.2,N
1690983095.4,286046998.9,N
1690983115.2,286046998.9,N
1690983135.0,286046998.9,N
1690983135.9,286046998.9,N
1690983155.8,286046999.1,N
1690983175.6,286046998.3,N
1690983195.5,286046998.7,N
1690983215.3,286046998.2,N
1690983235.1,286047000.0,N
1690983255.9,286046998.5,N
1690983275.7,286046998.8,N
1690983295.6,286046998.4,N
1690983315.4,286046998.6,N
1690983335.2,286046999.9,N
1690983355.1,286047000.9,N
1690983356.0,286047000.9,N
1690983375.8,286047000.7,N
1690983395.7,286047000.4,N
1690983415.5,286047001.0,N
1690983435.3,286047001.0,N
1690983455.2,286046998.6,N
1690983475.9,286046999.1,N
1690983495.7,286046997.0,N
1690983515.6,286046997.4,N
1690983535.4,286046999.5,N
1690983555.3,286046997.1,N
1690983575.1,286046999.4,N
1690983576.0,286046999.4,N
1690983595.8,286046998.9,N
1690983615.7,286046997.0,N
1690983635.5,286046999.5,N
1690983655.3,286046996.6,Y
1690983675.2,286046999.1,P
1690983695.0,286046999.3,P
1690983695.9,286046999.3,P
1690983715.8,286046999.3,Y
1690983735.6,286047001.2,P
1690983755.4,286047001.2,N
1690983775.3,286047000.5,N
1690983795.1,286047001.2,N
1690983815.9,286046998.5,N
1690983835.7,286047000.7,N
1690983855.5,286046998.7,N
1690983875.4,286046998.9,N
1690983895.2,286046999.2,N
1690983915.0,286046999.4,N
1690983915.9,286046999.4,N
1690983935.8,286046997.0,Y
1690983955.6,286046997.2,P
1690983975.5,286046997.3,N
1690983995.3,286046996.7,N
1690984015.1,286046996.9,N
1690984035.9,286046997.3,N
1690984055.7,286046997.8,N
1690984075.5,286046996.7,Y
1690984095.4,286047001.0,P
1690984115.2,286046999.0,N
1690984135.1,286046999.0,N
1690984136.0,286046999.0,N
1690984155.8,286046999.2,N
1690984175.6,286046999.2,N
1690984195.5,286046999.3,N
1690984215.3,286046998.1,N
1690984235.1,286046998.1,N
1690984255.9,286047000.8,N
1690984275.7,286047001.2,N
1690984295.6,286047001.0,N
1690984315.4,286047001.2,N
1690984335.2,286046998.6,N
1690984355.1,286046998.5,N
1690984356.0,286046998.5,N
1690984375.8,286047001.2,N
1690984395.7,286047000.5,N
1690984415.5,286047002.2,N
1690984435.3,286047002.3,N
1690984455.2,286047002.7,N
1690984475.0,286047001.6,N
1690984475.9,286047001.6,N
1690984495.7,286047001.3,N
1690984515.6,286047001.7,N
1690984535.4,286047001.6,N
1690984555.3,286047004.4,N
1690984575.1,286047003.8,N
1690984576.0,286047003.8,N
1690984595.8,286047003.9,N
1690984615.7,286047004.0,N
1690984635.5,286047004.1,N
1690984655.3,286047003.6,N
1690984675.2,286047004.4,N
1690984695.0,286047003.5,N
1690984695.9,286047003.5,N
1690984715.8,286047002.9,N
1690984735.6,286047002.9,N
1690984755.4,286047003.3,N
1690984775.3,286047005.8,Y
1690984795.1,286047004.0,P
